QPF
0.01 0.03 0.10 0.10 0.11 0.12 0.10 0.08 0.06 0.04 0.04 0.04 0.03 0.02 0.02 0.03 0.04 0.11 0.15 0.11 0.07 0.05 0.03 0.04 0.04 0.04 0.04 0.03 0.03 0.04 0.04 0.04 0.05 0.08 0.10 0.09 0.11 0.16 0.18 0.17 0.13 0.12 0.12 0.09 0.07 0.04 0.05 0.08 0.10
0.03 0.07 0.13 0.16 0.13 0.11 0.08 0.06 0.05 0.04 0.02 0.01 0.01 0.02 0.02 0.03 0.04 0.08 0.12 0.09 0.06 0.03 0.02 0.03 0.03 0.03 0.03 0.03 0.03 0.03 0.03 0.03 0.05 0.08 0.09 0.11 0.16 0.21 0.16 0.15 0.13 0.10 0.09 0.07 0.05 0.04 0.04 0.05 0.07
0.07 0.11 0.15 0.18 0.12 0.06 0.05 0.07 0.05 0.03 0.02 0.01 0.01 0.01 0.02 0.04 0.04 0.07 0.09 0.06 0.04 0.03 0.02 0.02 0.03 0.03 0.02 0.02 0.02 0.02 0.03 0.04 0.06 0.09 0.09 0.11 0.15 0.16 0.11 0.10 0.07 0.06 0.07 0.06 0.04 0.04 0.04 0.04 0.04
0.12 0.21 0.19 0.14 0.08 0.05 0.05 0.09 0.02 0.01 0.01 0.01 0.01 0.01 0.02 0.02 0.02 0.04 0.05 0.04 0.03 0.03 0.02 0.03 0.04 0.04 0.03 0.03 0.03 0.03 0.04 0.07 0.13 0.10 0.09 0.08 0.09 0.08 0.07 0.06 0.04 0.04 0.05 0.05 0.05 0.05 0.04 0.05 0.05
0.13 0.20 0.17 0.09 0.05 0.04 0.04 0.05 0.01 0.01 0.00 0.00 0.01 0.01 0.02 0.01 0.01 0.03 0.03 0.03 0.02 0.02 0.02 0.03 0.03 0.03 0.02 0.02 0.03 0.04 0.08 0.17 0.14 0.10 0.08 0.06 0.05 0.05 0.05 0.05 0.05 0.05 0.05 0.04 0.04 0.04 0.04 0.07 0.08
0.14 0.19 0.15 0.07 0.04 0.02 0.01 0.01 0.00 0.00 0.00 0.00 0.00 0.01 0.03 0.02 0.02 0.03 0.03 0.02 0.01 0.01 0.01 0.02 0.02 0.02 0.02 0.02 0.03 0.06 0.12 0.13 0.08 0.07 0.05 0.04 0.04 0.04 0.04 0.05 0.05 0.05 0.04 0.03 0.03 0.04 0.03 0.08 0.08
0.25 0.18 0.14 0.05 0.02 0.02 0.01 0.00 0.00 0.01 0.01 0.00 0.00 0.01 0.03 0.03 0.02 0.03 0.04 0.03 0.02 0.02 0.02 0.02 0.02 0.02 0.02 0.02 0.03 0.03 0.05 0.06 0.05 0.04 0.03 0.03 0.03 0.06 0.05 0.03 0.04 0.06 0.04 0.04 0.04 0.06 0.05 0.11 0.11
0.14 0.10 0.08 0.04 0.02 0.03 0.01 0.01 0.01 0.01 0.01 0.01 0.01 0.01 0.02 0.02 0.01 0.02 0.04 0.06 0.04 0.05 0.05 0.04 0.04 0.04 0.02 0.02 0.02 0.03 0.04 0.05 0.05 0.04 0.04 0.04 0.05 0.05 0.05 0.04 0.04 0.06 0.05 0.04 0.06 0.08 0.08 0.08 0.12
0.08 0.07 0.05 0.03 0.02 0.02 0.01 0.01 0.01 0.01 0.01 0.01 0.02 0.02 0.01 0.00 0.00 0.01 0.02 0.05 0.04 0.04 0.03 0.04 0.05 0.05 0.04 0.03 0.02 0.03 0.04 0.04 0.03 0.02 0.03 0.03 0.02 0.03 0.03 0.02 0.03 0.03 0.04 0.05 0.06 0.07 0.10 0.08 0.10
0.07 0.06 0.04 0.02 0.01 0.01 0.01 0.01 0.01 0.02 0.03 0.02 0.01 0.01 0.01 0.00 0.01 0.01 0.01 0.03 0.03 0.02 0.02 0.03 0.04 0.04 0.04 0.03 0.02 0.02 0.04 0.02 0.02 0.02 0.02 0.02 0.02 0.01 0.02 0.03 0.04 0.04 0.04 0.05 0.07 0.08 0.11 0.09 0.07
0.09 0.04 0.01 0.01 0.00 0.01 0.01 0.01 0.01 0.02 0.03 0.02 0.01 0.01 0.01 0.01 0.01 0.00 0.01 0.02 0.02 0.03 0.03 0.02 0.02 0.02 0.03 0.03 0.03 0.02 0.03 0.02 0.02 0.02 0.02 0.02 0.01 0.01 0.02 0.03 0.03 0.03 0.04 0.03 0.05 0.08 0.09 0.06 0.07
0.09 0.02 0.01 0.01 0.01 0.01 0.01 0.01 0.02 0.02 0.02 0.02 0.01 0.02 0.01 0.01 0.01 0.01 0.01 0.01 0.02 0.02 0.02 0.02 0.02 0.03 0.04 0.03 0.03 0.03 0.03 0.02 0.02 0.02 0.03 0.02 0.02 0.02 0.02 0.02 0.02 0.03 0.03 0.03 0.04 0.06 0.09 0.07 0.05
0.04 0.01 0.01 0.01 0.01 0.01 0.01 0.01 0.02 0.03 0.03 0.03 0.03 0.02 0.02 0.03 0.02 0.02 0.02 0.03 0.02 0.01 0.01 0.01 0.01 0.02 0.04 0.05 0.03 0.03 0.03 0.02 0.02 0.02 0.02 0.02 0.02 0.01 0.03 0.03 0.03 0.04 0.04 0.05 0.06 0.06 0.09 0.07 0.05
0.02 0.02 0.02 0.02 0.01 0.01 0.01 0.01 0.01 0.02 0.02 0.03 0.04 0.04 0.04 0.03 0.02 0.01 0.01 0.02 0.01 0.01 0.01 0.01 0.01 0.02 0.01 0.02 0.02 0.03 0.03 0.03 0.03 0.03 0.03 0.02 0.01 0.01 0.01 0.02 0.03 0.05 0.05 0.05 0.06 0.05 0.06 0.05 0.04
0.02 0.03 0.03 0.02 0.01 0.01 0.01 0.02 0.02 0.01 0.01 0.02 0.03 0.03 0.03 0.02 0.02 0.01 0.00 0.01 0.01 0.01 0.02 0.02 0.01 0.01 0.01 0.01 0.02 0.03 0.05 0.03 0.03 0.03 0.03 0.02 0.01 0.01 0.01 0.02 0.04 0.05 0.06 0.06 0.06 0.06 0.05 0.04 0.03
0.03 0.04 0.04 0.01 0.01 0.01 0.02 0.03 0.01 0.00 0.00 0.01 0.01 0.02 0.02 0.02 0.02 0.02 0.00 0.01 0.01 0.01 0.01 0.01 0.01 0.02 0.01 0.01 0.02 0.04 0.05 0.04 0.03 0.03 0.03 0.02 0.01 0.01 0.02 0.04 0.04 0.06 0.06 0.06 0.06 0.06 0.04 0.04 0.04
0.02 0.03 0.02 0.01 0.01 0.01 0.02 0.03 0.02 0.01 0.00 0.01 0.01 0.01 0.01 0.01 0.01 0.01 0.00 0.00 0.01 0.01 0.01 0.01 0.02 0.03 0.02 0.02 0.02 0.04 0.06 0.05 0.04 0.04 0.04 0.02 0.02 0.01 0.02 0.03 0.03 0.05 0.06 0.07 0.08 0.07 0.05 0.05 0.04
0.02 0.03 0.03 0.01 0.01 0.01 0.01 0.03 0.02 0.02 0.02 0.01 0.01 0.02 0.01 0.01 0.01 0.00 0.00 0.00 0.01 0.01 0.01 0.02 0.02 0.02 0.03 0.03 0.03 0.03 0.06 0.07 0.06 0.07 0.06 0.03 0.03 0.02 0.02 0.02 0.03 0.05 0.06 0.07 0.07 0.07 0.06 0.05 0.05
0.02 0.03 0.03 0.02 0.01 0.01 0.02 0.03 0.04 0.03 0.03 0.02 0.01 0.02 0.01 0.01 0.00 0.00 0.00 0.00 0.00 0.01 0.01 0.01 0.01 0.02 0.02 0.03 0.03 0.02 0.04 0.05 0.05 0.04 0.04 0.04 0.04 0.04 0.05 0.03 0.03 0.04 0.04 0.06 0.07 0.08 0.08 0.06 0.06
0.02 0.03 0.03 0.02 0.02 0.01 0.02 0.03 0.04 0.02 0.02 0.02 0.02 0.02 0.02 0.01 0.00 0.01 0.01 0.01 0.01 0.01 0.01 0.01 0.01 0.01 0.02 0.02 0.03 0.03 0.03 0.03 0.03 0.02 0.02 0.03 0.03 0.05 0.04 0.04 0.03 0.04 0.05 0.07 0.08 0.07 0.07 0.06 0.08
0.02 0.02 0.03 0.03 0.02 0.02 0.02 0.04 0.04 0.02 0.02 0.03 0.02 0.03 0.04 0.02 0.01 0.02 0.01 0.01 0.01 0.01 0.01 0.01 0.01 0.01 0.01 0.01 0.02 0.03 0.03 0.04 0.04 0.03 0.03 0.04 0.04 0.04 0.02 0.03 0.03 0.02 0.03 0.04 0.05 0.08 0.09 0.08 0.09
0.01 0.01 0.02 0.03 0.03 0.03 0.02 0.03 0.02 0.02 0.02 0.02 0.02 0.04 0.04 0.02 0.01 0.02 0.01 0.01 0.02 0.01 0.01 0.01 0.01 0.01 0.00 0.00 0.01 0.04 0.04 0.05 0.05 0.04 0.05 0.05 0.05 0.03 0.02 0.02 0.01 0.01 0.01 0.02 0.03 0.05 0.07 0.08 0.09
0.01 0.01 0.01 0.02 0.03 0.04 0.03 0.02 0.01 0.02 0.03 0.03 0.02 0.02 0.03 0.03 0.02 0.02 0.03 0.03 0.02 0.02 0.01 0.01 0.00 0.00 0.01 0.01 0.01 0.03 0.07 0.09 0.08 0.05 0.04 0.03 0.04 0.04 0.05 0.05 0.04 0.03 0.02 0.02 0.03 0.03 0.05 0.06 0.07
0.01 0.01 0.01 0.02 0.03 0.05 0.03 0.02 0.01 0.03 0.03 0.03 0.04 0.03 0.03 0.04 0.03 0.03 0.03 0.03 0.02 0.02 0.01 0.01 0.01 0.01 0.01 0.01 0.01 0.02 0.08 0.11 0.07 0.04 0.03 0.03 0.03 0.03 0.04 0.06 0.09 0.09 0.05 0.03 0.03 0.03 0.04 0.04 0.06
0.01 0.01 0.02 0.04 0.04 0.05 0.04 0.02 0.01 0.02 0.02 0.03 0.03 0.04 0.04 0.03 0.03 0.03 0.03 0.03 0.02 0.01 0.01 0.01 0.01 0.01 0.01 0.01 0.01 0.02 0.04 0.08 0.08 0.06 0.04 0.03 0.02 0.02 0.03 0.04 0.06 0.07 0.06 0.04 0.03 0.03 0.03 0.04 0.04
0.01 0.02 0.03 0.04 0.03 0.04 0.04 0.02 0.01 0.03 0.04 0.04 0.04 0.04 0.04 0.04 0.03 0.02 0.02 0.03 0.03 0.02 0.02 0.02 0.02 0.02 0.01 0.01 0.01 0.01 0.01 0.02 0.03 0.03 0.04 0.03 0.02 0.02 0.02 0.03 0.03 0.03 0.04 0.04 0.03 0.03 0.02 0.03 0.03
0.01 0.01 0.02 0.04 0.05 0.06 0.05 0.02 0.02 0.02 0.03 0.05 0.04 0.05 0.05 0.03 0.03 0.03 0.03 0.07 0.07 0.03 0.02 0.02 0.02 0.02 0.01 0.01 0.01 0.01 0.00 0.00 0.01 0.01 0.03 0.04 0.03 0.02 0.02 0.02 0.02 0.03 0.03 0.04 0.04 0.03 0.03 0.03 0.02
0.00 0.01 0.01 0.02 0.05 0.05 0.03 0.04 0.03 0.03 0.02 0.02 0.04 0.06 0.08 0.05 0.04 0.04 0.04 0.04 0.03 0.02 0.02 0.02 0.03 0.02 0.01 0.01 0.00 0.00 0.00 0.00 0.00 0.00 0.01 0.02 0.02 0.03 0.03 0.02 0.01 0.02 0.03 0.04 0.04 0.03 0.03 0.03 0.02
0.00 0.00 0.01 0.01 0.02 0.03 0.03 0.04 0.03 0.03 0.03 0.04 0.06 0.11 0.11 0.07 0.05 0.04 0.03 0.03 0.02 0.02 0.02 0.03 0.04 0.01 0.01 0.00 0.00 0.00 0.00 0.00 0.00 0.00 0.01 0.01 0.01 0.01 0.01 0.02 0.02 0.01 0.02 0.03 0.03 0.03 0.03 0.03 0.03
0.00 0.00 0.00 0.01 0.01 0.01 0.03 0.04 0.02 0.02 0.03 0.06 0.08 0.09 0.07 0.03 0.02 0.02 0.02 0.02 0.02 0.02 0.01 0.01 0.01 0.01 0.00 0.00 0.00 0.00 0.00 0.00 0.01 0.00 0.01 0.01 0.01 0.01 0.01 0.01 0.01 0.01 0.01 0.02 0.02 0.02 0.03 0.03 0.02
MSLP
1010.66 1011.86 1013.07 1014.07 1014.65 1014.75 1014.38 1013.65 1012.74 1011.87 1011.18 1010.77 1010.63 1010.70 1010.86 1010.98 1010.97 1010.76 1010.36 1009.79 1009.11 1008.37 1007.61 1006.87 1006.17 1005.51 1004.91 1004.37 1003.85 1003.29 1002.59 1001.60 1000.16 998.16 995.58 992.50 989.16 985.88 983.07 981.17 980.45 981.05 982.91 985.79 989.30 993.00 996.47 999.39 1001.61
1011.11 1012.50 1013.80 1014.76 1015.23 1015.14 1014.54 1013.59 1012.49 1011.46 1010.67 1010.19 1010.01 1010.04 1010.15 1010.22 1010.15 1009.90 1009.48 1008.95 1008.36 1007.76 1007.19 1006.65 1006.14 1005.63 1005.14 1004.64 1004.13 1003.57 1002.90 1001.99 1000.73 999.03 996.87 994.29 991.49 988.73 986.37 984.77 984.17 984.69 986.28 988.73 991.73 994.87 997.80 1000.26 1002.14
1011.63 1013.13 1014.43 1015.31 1015.62 1015.34 1014.54 1013.42 1012.20 1011.09 1010.26 1009.76 1009.56 1009.55 1009.60 1009.59 1009.43 1009.10 1008.63 1008.11 1007.59 1007.13 1006.73 1006.39 1006.07 1005.73 1005.34 1004.91 1004.43 1003.89 1003.25 1002.46 1001.42 1000.07 998.38 996.37 994.18 992.03 990.18 988.92 988.46 988.89 990.18 992.15 994.55 997.05 999.37 1001.31 1002.79
1012.17 1013.67 1014.89 1015.63 1015.77 1015.30 1014.36 1013.14 1011.87 1010.78 1009.98 1009.52 1009.34 1009.31 1009.30 1009.20 1008.92 1008.49 1007.96 1007.41 1006.93 1006.57 1006.32 1006.15 1006.01 1005.81 1005.54 1005.17 1004.71 1004.19 1003.59 1002.91 1002.10 1001.09 999.86 998.42 996.85 995.29 993.95 993.04 992.72 993.07 994.07 995.57 997.37 999.25 1000.97 1002.40 1003.49
1012.69 1014.09 1015.15 1015.69 1015.63 1015.01 1013.98 1012.74 1011.53 1010.53 1009.84 1009.47 1009.35 1009.33 1009.28 1009.08 1008.70 1008.16 1007.55 1006.97 1006.51 1006.21 1006.07 1006.03 1006.02 1005.94 1005.75 1005.42 1004.98 1004.46 1003.90 1003.31 1002.68 1001.97 1001.15 1000.20 999.17 998.15 997.26 996.67 996.48 996.77 997.50 998.59 999.89 1001.22 1002.43 1003.43 1004.21
1013.15 1014.36 1015.19 1015.49 1015.25 1014.51 1013.44 1012.25 1011.16 1010.32 1009.80 1009.58 1009.55 1009.56 1009.49 1009.23 1008.76 1008.14 1007.46 1006.84 1006.39 1006.13 1006.06 1006.10 1006.17 1006.15 1006.00 1005.69 1005.25 1004.73 1004.19 1003.67 1003.17 1002.68 1002.17 1001.61 1001.01 1000.41 999.89 999.54 999.46 999.69 1000.22 1000.99 1001.89 1002.81 1003.65 1004.34 1004.90
1013.51 1014.47 1015.03 1015.09 1014.66 1013.84 1012.79 1011.71 1010.78 1010.15 1009.83 1009.76 1009.84 1009.91 1009.84 1009.55 1009.04 1008.37 1007.65 1007.02 1006.57 1006.33 1006.29 1006.37 1006.47 1006.48 1006.33 1006.01 1005.56 1005.03 1004.49 1004.01 1003.61 1003.27 1002.98 1002.69 1002.38 1002.07 1001.80 1001.63 1001.61 1001.80 1002.18 1002.72 1003.36 1004.01 1004.60 1005.12 1005.56
1013.76 1014.45 1014.72 1014.55 1013.98 1013.11 1012.11 1011.17 1010.43 1010.00 1009.87 1009.95 1010.13 1010.25 1010.20 1009.91 1009.40 1008.73 1008.03 1007.42 1006.99 1006.77 1006.74 1006.82 1006.91 1006.90 1006.74 1006.40 1005.93 1005.39 1004.87 1004.42 1004.08 1003.85 1003.69 1003.56 1003.43 1003.29 1003.17 1003.09 1003.11 1003.25 1003.53 1003.92 1004.39 1004.89 1005.37 1005.81 1006.21
1013.91 1014.32 1014.35 1013.98 1013.30 1012.43 1011.51 1010.71 1010.15 1009.89 1009.90 1010.09 1010.33 1010.49 1010.47 1010.20 1009.73 1009.11 1008.47 1007.91 1007.53 1007.34 1007.31 1007.37 1007.43 1007.39 1007.19 1006.83 1006.36 1005.83 1005.33 1004.92 1004.64 1004.47 1004.39 1004.35 1004.32 1004.27 1004.20 1004.15 1004.17 1004.26 1004.47 1004.78 1005.16 1005.59 1006.03 1006.44 1006.85
1013.97 1014.15 1013.97 1013.47 1012.74 1011.89 1011.07 1010.41 1009.99 1009.85 1009.95 1010.18 1010.43 1010.59 1010.57 1010.35 1009.93 1009.39 1008.85 1008.39 1008.07 1007.92 1007.89 1007.93 1007.94 1007.85 1007.63 1007.26 1006.81 1006.31 1005.87 1005.52 1005.29 1005.19 1005.16 1005.17 1005.17 1005.14 1005.09 1005.03 1005.02 1005.07 1005.23 1005.48 1005.82 1006.22 1006.65 1007.08 1007.50
1013.97 1013.99 1013.67 1013.10 1012.37 1011.58 1010.87 1010.32 1010.00 1009.92 1010.03 1010.24 1010.45 1010.57 1010.54 1010.33 1009.98 1009.55 1009.12 1008.77 1008.53 1008.41 1008.39 1008.40 1008.36 1008.23 1007.99 1007.63 1007.22 1006.79 1006.42 1006.15 1006.00 1005.95 1005.97 1006.00 1006.01 1005.99 1005.93 1005.85 1005.81 1005.83 1005.94 1006.16 1006.47 1006.86 1007.28 1007.72 1008.15
1013.99 1013.89 1013.51 1012.93 1012.25 1011.55 1010.95 1010.49 1010.23 1010.15 1010.21 1010.34 1010.45 1010.49 1010.41 1010.22 1009.93 1009.59 1009.27 1009.02 1008.85 1008.77 1008.75 1008.72 1008.64 1008.48 1008.23 1007.90 1007.54 1007.20 1006.92 1006.74 1006.67 1006.68 1006.73 1006.79 1006.81 1006.79 1006.73 1006.64 1006.59 1006.59 1006.68 1006.87 1007.16 1007.53 1007.94 1008.36 1008.77
1014.07 1013.92 1013.55 1013.01 1012.42 1011.83 1011.33 1010.96 1010.72 1010.60 1010.57 1010.56 1010.54 1010.47 1010.33 1010.12 1009.86 1009.60 1009.37 1009.19 1009.07 1009.00 1008.95 1008.89 1008.77 1008.59 1008.34 1008.05 1007.75 1007.50 1007.31 1007.22 1007.22 1007.28 1007.36 1007.44 1007.48 1007.47 1007.42 1007.35 1007.30 1007.31 1007.40 1007.59 1007.86 1008.21 1008.59 1008.99 1009.36
1014.28 1014.13 1013.81 1013.37 1012.90 1012.44 1012.05 1011.72 1011.48 1011.29 1011.14 1010.99 1010.83 1010.63 1010.41 1010.16 1009.92 1009.69 1009.51 1009.36 1009.25 1009.17 1009.08 1008.97 1008.81 1008.60 1008.36 1008.11 1007.89 1007.71 1007.59 1007.56 1007.59 1007.67 1007.77 1007.85 1007.90 1007.91 1007.89 1007.87 1007.87 1007.92 1008.04 1008.23 1008.50 1008.83 1009.18 1009.54 1009.88
1014.63 1014.54 1014.31 1014.00 1013.67 1013.35 1013.04 1012.77 1012.50 1012.23 1011.96 1011.66 1011.36 1011.05 1010.74 1010.46 1010.21 1009.99 1009.81 1009.66 1009.52 1009.37 1009.22 1009.05 1008.84 1008.61 1008.39 1008.18 1008.01 1007.88 1007.81 1007.79 1007.82 1007.88 1007.94 1008.00 1008.04 1008.07 1008.10 1008.14 1008.21 1008.33 1008.50 1008.73 1009.01 1009.33 1009.66 1010.00 1010.31
1015.14 1015.14 1015.03 1014.88 1014.70 1014.51 1014.29 1014.04 1013.74 1013.39 1013.00 1012.58 1012.15 1011.75 1011.38 1011.06 1010.79 1010.55 1010.35 1010.15 1009.94 1009.72 1009.48 1009.23 1008.97 1008.74 1008.52 1008.35 1008.21 1008.11 1008.04 1008.00 1007.98 1007.96 1007.95 1007.95 1007.96 1007.99 1008.06 1008.16 1008.31 1008.51 1008.75 1009.03 1009.34 1009.67 1010.00 1010.32 1010.63
1015.76 1015.89 1015.95 1015.97 1015.95 1015.87 1015.73 1015.49 1015.15 1014.71 1014.21 1013.67 1013.15 1012.67 1012.26 1011.92 1011.63 1011.38 1011.14 1010.87 1010.58 1010.26 1009.93 1009.60 1009.30 1009.05 1008.85 1008.70 1008.59 1008.50 1008.41 1008.30 1008.18 1008.05 1007.93 1007.82 1007.77 1007.77 1007.85 1008.01 1008.23 1008.51 1008.82 1009.15 1009.49 1009.83 1010.17 1010.50 1010.82
1016.43 1016.74 1017.00 1017.21 1017.35 1017.39 1017.29 1017.05 1016.64 1016.11 1015.49 1014.85 1014.26 1013.73 1013.30 1012.96 1012.67 1012.41 1012.13 1011.80 1011.42 1011.01 1010.58 1010.19 1009.85 1009.59 1009.41 1009.29 1009.19 1009.10 1008.97 1008.78 1008.55 1008.27 1008.01 1007.77 1007.62 1007.57 1007.63 1007.81 1008.07 1008.39 1008.75 1009.11 1009.47 1009.83 1010.17 1010.52 1010.87
1017.08 1017.61 1018.10 1018.52 1018.83 1018.98 1018.92 1018.63 1018.14 1017.49 1016.75 1016.01 1015.35 1014.79 1014.36 1014.03 1013.77 1013.51 1013.21 1012.84 1012.39 1011.90 1011.41 1010.95 1010.59 1010.33 1010.17 1010.08 1010.01 1009.92 1009.75 1009.48 1009.13 1008.72 1008.30 1007.94 1007.67 1007.53 1007.54 1007.69 1007.95 1008.28 1008.64 1009.00 1009.35 1009.69 1010.03 1010.38 1010.75
1017.63 1018.42 1019.17 1019.83 1020.31 1020.56 1020.51 1020.17 1019.56 1018.77 1017.89 1017.04 1016.30 1015.71 1015.29 1015.00 1014.78 1014.55 1014.26 1013.88 1013.40 1012.86 1012.32 1011.83 1011.45 1011.21 1011.08 1011.02 1010.98 1010.89 1010.70 1010.39 1009.94 1009.42 1008.87 1008.38 1007.99 1007.76 1007.69 1007.78 1007.99 1008.26 1008.57 1008.88 1009.18 1009.47 1009.77 1010.10 1010.47
1018.03 1019.11 1020.14 1021.04 1021.71 1022.04 1021.99 1021.58 1020.84 1019.89 1018.85 1017.87 1017.05 1016.43 1016.01 1015.76 1015.59 1015.42 1015.17 1014.81 1014.33 1013.78 1013.22 1012.72 1012.34 1012.11 1012.01 1011.99 1011.99 1011.92 1011.73 1011.39 1010.90 1010.31 1009.68 1009.09 1008.61 1008.28 1008.12 1008.12 1008.23 1008.41 1008.61 1008.82 1009.02 1009.21 1009.44 1009.71 1010.04
1018.25 1019.61 1020.93 1022.07 1022.92 1023.34 1023.30 1022.80 1021.93 1020.81 1019.61 1018.49 1017.57 1016.89 1016.48 1016.27 1016.17 1016.06 1015.88 1015.57 1015.12 1014.58 1014.03 1013.53 1013.16 1012.93 1012.86 1012.87 1012.90 1012.87 1012.71 1012.38 1011.89 1011.29 1010.63 1009.99 1009.45 1009.04 1008.79 1008.68 1008.67 1008.73 1008.79 1008.85 1008.91 1008.97 1009.08 1009.25 1009.52
1018.31 1019.93 1021.50 1022.87 1023.88 1024.39 1024.36 1023.80 1022.81 1021.54 1020.19 1018.93 1017.91 1017.18 1016.76 1016.57 1016.53 1016.50 1016.39 1016.14 1015.75 1015.25 1014.71 1014.22 1013.85 1013.63 1013.55 1013.58 1013.63 1013.63 1013.51 1013.23 1012.78 1012.21 1011.57 1010.93 1010.37 1009.92 1009.60 1009.39 1009.26 1009.17 1009.08 1008.98 1008.87 1008.79 1008.75 1008.81 1008.97
1018.24 1020.05 1021.84 1023.40 1024.55 1025.15 1025.14 1024.54 1023.47 1022.09 1020.63 1019.26 1018.15 1017.38 1016.94 1016.77 1016.77 1016.80 1016.76 1016.58 1016.24 1015.79 1015.27 1014.78 1014.41 1014.17 1014.08 1014.09 1014.15 1014.17 1014.09 1013.85 1013.47 1012.96 1012.37 1011.78 1011.24 1010.78 1010.41 1010.12 1009.89 1009.67 1009.43 1009.19 1008.93 1008.69 1008.51 1008.44 1008.49
1018.11 1020.04 1021.96 1023.65 1024.91 1025.59 1025.62 1025.03 1023.94 1022.51 1020.99 1019.57 1018.41 1017.60 1017.15 1016.99 1017.01 1017.08 1017.09 1016.97 1016.67 1016.25 1015.75 1015.27 1014.87 1014.60 1014.47 1014.44 1014.47 1014.48 1014.41 1014.23 1013.90 1013.47 1012.95 1012.43 1011.93 1011.48 1011.10 1010.77 1010.46 1010.15 1009.81 1009.44 1009.06 1008.69 1008.39 1008.20 1008.13
1017.97 1019.93 1021.89 1023.65 1024.97 1025.72 1025.82 1025.28 1024.23 1022.84 1021.33 1019.92 1018.76 1017.95 1017.48 1017.32 1017.35 1017.43 1017.47 1017.37 1017.11 1016.70 1016.21 1015.71 1015.28 1014.96 1014.76 1014.68 1014.65 1014.62 1014.54 1014.37 1014.09 1013.71 1013.27 1012.82 1012.37 1011.96 1011.59 1011.24 1010.90 1010.53 1010.13 1009.70 1009.24 1008.80 1008.42 1008.13 1007.96
1017.89 1019.78 1021.71 1023.45 1024.79 1025.59 1025.76 1025.32 1024.38 1023.10 1021.69 1020.36 1019.26 1018.47 1018.01 1017.84 1017.85 1017.91 1017.94 1017.83 1017.57 1017.17 1016.68 1016.16 1015.69 1015.31 1015.04 1014.87 1014.76 1014.67 1014.54 1014.35 1014.08 1013.74 1013.35 1012.95 1012.55 1012.18 1011.84 1011.51 1011.17 1010.79 1010.38 1009.92 1009.45 1008.98 1008.55 1008.21 1007.97
1017.90 1019.66 1021.47 1023.13 1024.44 1025.26 1025.51 1025.19 1024.41 1023.31 1022.07 1020.89 1019.89 1019.17 1018.73 1018.54 1018.51 1018.53 1018.51 1018.37 1018.09 1017.68 1017.17 1016.63 1016.12 1015.68 1015.33 1015.07 1014.87 1014.69 1014.49 1014.25 1013.96 1013.62 1013.25 1012.87 1012.52 1012.18 1011.87 1011.56 1011.24 1010.89 1010.51 1010.08 1009.63 1009.18 1008.76 1008.40 1008.11
1018.05 1019.63 1021.26 1022.78 1024.01 1024.81 1025.13 1024.95 1024.36 1023.47 1022.46 1021.47 1020.62 1019.98 1019.58 1019.36 1019.28 1019.23 1019.13 1018.93 1018.61 1018.17 1017.65 1017.09 1016.55 1016.07 1015.65 1015.31 1015.01 1014.74 1014.46 1014.15 1013.80 1013.43 1013.05 1012.68 1012.33 1012.01 1011.72 1011.44 1011.16 1010.85 1010.51 1010.14 1009.74 1009.34 1008.95 1008.60 1008.30
1018.37 1019.73 1021.16 1022.49 1023.59 1024.35 1024.70 1024.65 1024.25 1023.60 1022.83 1022.05 1021.37 1020.83 1020.46 1020.22 1020.06 1019.92 1019.73 1019.46 1019.08 1018.60 1018.06 1017.49 1016.94 1016.43 1015.98 1015.57 1015.20 1014.84 1014.47 1014.08 1013.67 1013.25 1012.84 1012.45 1012.09 1011.78 1011.50 1011.24 1010.98 1010.71 1010.41 1010.10 1009.76 1009.41 1009.06 1008.74 1008.43
Thickness
5822 5820 5817 5806 5789 5773 5771 5785 5797 5800 5802 5809 5813 5807 5796 5788 5780 5771 5793 5801 5799 5798 5797 5796 5796 5795 5794 5794 5793 5792 5791 5790 5789 5788 5787 5786 5786 5786 5786 5785 5785 5784 5782 5780 5779 5778 5776 5775 5774
5825 5822 5812 5798 5776 5760 5771 5792 5797 5803 5809 5815 5812 5807 5798 5793 5798 5795 5796 5800 5800 5798 5797 5797 5796 5795 5794 5793 5793 5791 5790 5790 5788 5787 5786 5786 5785 5785 5785 5785 5784 5783 5782 5780 5779 5778 5776 5775 5774
5827 5823 5803 5788 5774 5768 5778 5797 5803 5812 5819 5816 5807 5806 5800 5794 5800 5799 5802 5802 5800 5798 5797 5797 5796 5795 5794 5793 5792 5791 5790 5789 5788 5786 5786 5785 5785 5784 5785 5785 5784 5783 5782 5781 5779 5778 5777 5775 5774
5825 5812 5801 5782 5777 5792 5799 5805 5813 5811 5813 5815 5808 5798 5802 5809 5807 5806 5807 5804 5800 5798 5797 5797 5796 5795 5794 5792 5791 5790 5789 5788 5787 5786 5785 5785 5784 5784 5784 5784 5783 5782 5781 5780 5779 5778 5777 5775 5773
5822 5804 5787 5776 5786 5802 5812 5818 5819 5810 5807 5808 5806 5792 5792 5808 5813 5810 5807 5804 5800 5798 5798 5797 5796 5795 5794 5792 5791 5790 5788 5787 5787 5786 5785 5785 5784 5784 5783 5783 5783 5782 5781 5780 5779 5778 5776 5775 5773
5809 5799 5776 5770 5788 5806 5817 5823 5819 5811 5806 5807 5803 5792 5790 5806 5808 5806 5806 5803 5802 5799 5798 5796 5795 5794 5793 5791 5790 5789 5788 5787 5786 5786 5785 5784 5784 5783 5782 5782 5782 5781 5780 5780 5779 5777 5776 5774 5773
5803 5791 5779 5783 5790 5800 5814 5825 5817 5810 5806 5808 5809 5791 5791 5801 5807 5808 5806 5803 5801 5799 5797 5795 5794 5793 5792 5791 5789 5788 5787 5786 5785 5785 5784 5784 5783 5782 5782 5781 5781 5780 5780 5779 5778 5777 5776 5774 5773
5816 5796 5785 5787 5791 5798 5819 5824 5822 5816 5810 5819 5815 5794 5789 5801 5809 5808 5804 5802 5799 5798 5796 5794 5793 5792 5791 5789 5788 5787 5786 5785 5784 5784 5783 5783 5782 5781 5781 5781 5780 5780 5779 5779 5778 5777 5775 5774 5773
5823 5791 5781 5791 5796 5804 5821 5818 5820 5825 5819 5817 5817 5811 5808 5811 5810 5804 5799 5797 5796 5795 5795 5794 5793 5791 5790 5789 5787 5786 5785 5784 5783 5783 5782 5782 5781 5780 5780 5780 5779 5779 5779 5778 5777 5776 5775 5774 5773
5811 5786 5797 5815 5817 5815 5821 5819 5818 5813 5807 5806 5807 5811 5813 5810 5806 5800 5796 5793 5792 5792 5793 5794 5793 5791 5790 5789 5787 5785 5784 5783 5782 5782 5782 5781 5780 5780 5779 5779 5779 5778 5778 5777 5776 5775 5774 5773 5772
5816 5805 5818 5826 5831 5828 5822 5820 5823 5809 5798 5803 5803 5805 5808 5806 5803 5800 5796 5795 5794 5795 5794 5794 5793 5792 5790 5788 5787 5785 5784 5783 5782 5782 5781 5780 5780 5779 5778 5778 5777 5777 5777 5776 5775 5774 5772 5771 5770
5820 5824 5830 5830 5836 5831 5825 5821 5816 5813 5810 5818 5817 5814 5810 5805 5802 5800 5797 5796 5796 5795 5794 5794 5794 5792 5791 5789 5787 5785 5784 5783 5782 5782 5781 5780 5779 5778 5777 5776 5776 5776 5775 5774 5773 5771 5771 5770 5769
5820 5824 5834 5838 5836 5833 5828 5820 5816 5813 5821 5823 5820 5815 5809 5806 5804 5804 5803 5800 5797 5795 5794 5794 5795 5792 5791 5789 5788 5787 5785 5784 5784 5783 5782 5781 5779 5778 5777 5776 5775 5774 5773 5773 5771 5770 5769 5768 5768
5825 5829 5831 5834 5833 5832 5823 5818 5816 5812 5822 5819 5815 5810 5809 5807 5805 5803 5801 5798 5797 5796 5795 5795 5794 5793 5792 5790 5788 5787 5786 5785 5784 5783 5782 5781 5780 5778 5777 5776 5775 5774 5773 5772 5771 5769 5768 5767 5766
5832 5822 5823 5828 5831 5828 5823 5805 5809 5817 5820 5814 5811 5810 5809 5807 5806 5804 5803 5801 5799 5798 5797 5796 5795 5794 5792 5790 5789 5788 5787 5786 5785 5783 5782 5781 5780 5779 5777 5776 5775 5774 5774 5772 5770 5769 5767 5766 5764
5822 5809 5799 5820 5829 5828 5813 5787 5809 5819 5816 5808 5809 5808 5806 5806 5806 5807 5806 5804 5803 5800 5798 5797 5798 5794 5793 5791 5789 5788 5787 5786 5785 5783 5782 5781 5780 5779 5777 5776 5775 5775 5773 5771 5769 5767 5765 5763 5762
5801 5790 5793 5811 5829 5827 5811 5794 5811 5820 5815 5808 5808 5807 5806 5805 5806 5808 5808 5807 5805 5803 5800 5798 5797 5794 5793 5792 5790 5788 5787 5785 5784 5783 5782 5781 5780 5779 5778 5776 5775 5774 5773 5771 5769 5767 5765 5762 5760
5788 5791 5797 5804 5823 5823 5808 5802 5811 5817 5815 5809 5808 5807 5805 5805 5806 5809 5809 5809 5806 5804 5801 5798 5797 5795 5793 5791 5789 5787 5785 5784 5784 5783 5782 5781 5780 5779 5777 5775 5774 5773 5771 5769 5768 5765 5764 5762 5760
5811 5802 5800 5811 5827 5818 5806 5803 5807 5813 5811 5808 5807 5806 5805 5806 5809 5811 5810 5809 5806 5802 5799 5797 5795 5794 5792 5789 5786 5783 5781 5782 5782 5782 5782 5780 5779 5778 5777 5775 5773 5772 5769 5767 5766 5764 5762 5760 5759
5813 5801 5801 5812 5825 5817 5804 5803 5811 5813 5812 5813 5811 5809 5807 5806 5806 5808 5808 5807 5804 5801 5799 5797 5795 5794 5792 5790 5788 5786 5784 5782 5782 5781 5780 5780 5779 5778 5777 5774 5772 5770 5768 5766 5765 5763 5759 5757 5758
5810 5805 5803 5804 5813 5815 5802 5790 5801 5811 5815 5814 5815 5814 5812 5810 5806 5806 5806 5805 5804 5801 5799 5798 5795 5794 5792 5791 5789 5786 5783 5780 5778 5777 5776 5777 5777 5776 5775 5774 5772 5770 5767 5764 5763 5762 5758 5754 5755
5804 5823 5821 5814 5795 5783 5792 5763 5787 5801 5805 5809 5810 5810 5810 5811 5809 5807 5805 5804 5803 5802 5801 5798 5795 5793 5792 5790 5787 5782 5777 5774 5774 5774 5774 5775 5775 5774 5773 5772 5770 5768 5766 5764 5763 5762 5759 5755 5751
5820 5834 5826 5815 5797 5784 5786 5767 5778 5798 5794 5803 5809 5812 5813 5813 5811 5808 5807 5805 5804 5803 5800 5798 5794 5792 5790 5789 5786 5782 5778 5775 5774 5774 5772 5772 5772 5771 5770 5769 5768 5766 5765 5763 5762 5760 5758 5756 5752
5835 5823 5811 5798 5783 5764 5779 5769 5770 5788 5799 5806 5811 5814 5814 5814 5812 5809 5808 5806 5803 5802 5799 5796 5793 5790 5788 5786 5784 5780 5776 5774 5771 5770 5768 5768 5767 5767 5767 5767 5766 5765 5763 5762 5760 5759 5757 5755 5753
5824 5792 5763 5758 5750 5755 5782 5773 5778 5807 5817 5817 5814 5813 5814 5814 5810 5807 5804 5802 5800 5799 5797 5795 5791 5788 5786 5784 5781 5778 5775 5772 5769 5767 5766 5764 5763 5763 5763 5763 5762 5762 5761 5760 5759 5757 5755 5753 5751
5815 5797 5763 5747 5743 5755 5775 5770 5791 5818 5824 5824 5820 5817 5814 5811 5809 5806 5805 5802 5800 5797 5795 5793 5789 5786 5784 5781 5778 5776 5774 5770 5768 5766 5764 5762 5761 5760 5761 5760 5759 5759 5758 5757 5756 5754 5753 5751 5749
5813 5800 5798 5770 5761 5751 5761 5779 5799 5815 5815 5815 5815 5814 5811 5810 5808 5806 5805 5803 5800 5796 5793 5791 5787 5784 5782 5779 5776 5773 5771 5768 5765 5764 5762 5760 5759 5759 5757 5756 5755 5755 5754 5753 5752 5750 5749 5748 5746
5829 5814 5788 5768 5749 5741 5755 5765 5771 5791 5797 5804 5807 5807 5809 5809 5805 5804 5802 5801 5799 5796 5793 5790 5787 5783 5780 5777 5774 5772 5768 5766 5763 5761 5758 5757 5756 5755 5753 5752 5751 5750 5749 5749 5747 5745 5745 5743 5742
5814 5806 5789 5769 5762 5743 5739 5757 5799 5798 5802 5802 5804 5807 5806 5805 5802 5801 5800 5800 5797 5793 5791 5787 5784 5781 5778 5775 5772 5769 5766 5764 5761 5758 5756 5754 5753 5751 5749 5748 5747 5745 5744 5743 5742 5741 5740 5738 5737
5820 5807 5789 5767 5761 5756 5747 5761 5812 5808 5808 5807 5805 5805 5805 5803 5802 5800 5798 5796 5793 5790 5788 5784 5782 5779 5775 5773 5769 5765 5763 5760 5757 5754 5753 5751 5749 5748 5746 5744 5743 5741 5740 5739 5737 5735 5735 5733 5732